DLR-TUBSAT

Last updated on Tue Jul 01 2025 00:02:29 GMT+0000 (Coordinated Universal Time)

1 25757U 99029B 25181.52233868 .00000051 00000+0 24429-4 0 9999 2 25757 98.6360 161.1005 0013905 344.5045 15.5722 14.52277502382209
UTC large
Height (km)
Speed (km/s)
/
Latitude / Longitude
Inclination (degrees)
Orbital Period (minutes)
Azimuth
Elevation
Range (km)
Doppler Factor

Next 0 passes for location: London (51.5072 / 0.1276)

Sorry there are no passes over London.